This is the latest recevied weather packets stored in our database for station/object N6DZK. If no packets are shown the sender has not sent any weather packets the latest 1 day(s).
| Time | Temp. | Humidity | Pressure | Rain* | Wind** | Luminosity | Snow |
|---|---|---|---|---|---|---|---|
| 1778086325 | 20.56° C | 57% | 1020.1 hPa | 0 mm | - | 682 W/m² | - |
| 1778084807 | 20° C | 60% | 1020.4 hPa | 0 mm | - | 610 W/m² | - |
| 1778080644 | 17.22° C | 69% | 1020.8 hPa | 0 mm | - | 284 W/m² | - |
| 1778080036 | 17.22° C | 69% | 1020.8 hPa | 0 mm | - | 229 W/m² | - |
| 1778078521 | 12.22° C | 92% | 1021 hPa | 0 mm | - | 106 W/m² | - |
| 1778076708 | 11.67° C | 96% | 1020.6 hPa | 0 mm | - | 57 W/m² | - |
| 1778076405 | 11.67° C | 97% | 1020.7 hPa | 0 mm | - | 69 W/m² | - |
| 1778075192 | 8.89° C | 96% | 1020.4 hPa | 0 mm | - | 36 W/m² | - |
| 1778071860 | 8.89° C | 96% | 1019.8 hPa | 0 mm | - | 0 W/m² | - |
| 1778071255 | 8.89° C | 95% | 1019.7 hPa | 0 mm | - | 0 W/m² | - |
| 1778070651 | 8.89° C | 95% | 1019.6 hPa | 0 mm | - | 0 W/m² | - |
| 1778070347 | 8.89° C | 95% | 1019.6 hPa | 0 mm | - | 0 W/m² | - |
| 1778069137 | 8.89° C | 95% | 1019.6 hPa | 0 mm | - | 0 W/m² | - |
| 1778068834 | 8.89° C | 95% | 1019.7 hPa | 0 mm | - | 0 W/m² | - |
| 1778068532 | 8.89° C | 95% | 1019.6 hPa | 0 mm | - | 0 W/m² | - |
| 1778067927 | 8.89° C | 95% | 1019.4 hPa | 0 mm | - | 0 W/m² | - |
| 1778067323 | 8.89° C | 95% | 1019.3 hPa | 0 mm | - | 0 W/m² | - |
| 1778066414 | 8.89° C | 94% | 1019.3 hPa | 0 mm | - | 0 W/m² | - |
| 1778065809 | 9.44° C | 94% | 1019.3 hPa | 0 mm | - | 0 W/m² | - |
| 1778064597 | 9.44° C | 94% | 1019.3 hPa | 0 mm | - | 0 W/m² | - |
| 1778063993 | 9.44° C | 93% | 1019.5 hPa | 0 mm | - | 0 W/m² | - |
| 1778063386 | 10° C | 93% | 1019.3 hPa | 0 mm | - | 0 W/m² | - |
| 1778062478 | 10° C | 92% | 1019.1 hPa | 0 mm | - | 0 W/m² | - |
| 1778061571 | 10.56° C | 91% | 1019.2 hPa | 0 mm | - | 0 W/m² | - |
| 1778060965 | 10.56° C | 91% | 1019.4 hPa | 0 mm | - | 0 W/m² | - |
* Rain latest hour (hover to see other rain measurements)
** Current wind speed in m/s (hover to see current wind gust speed)